Location: Newark
(45.1167°S, 170.6500°W)
Time: 03:49:23
(UTC+00:00)

OTV 5 (USA 277) - Visible Passes

Search period start: 22 September 2019 00:00
Search period end: 02 October 2019 00:00
Orbit: 295 x 339 km, 54.5° (Epoch: 08 September)

Date Brightness Start Highest point End Pass type
(mag) Time Alt. Az. Time Alt. Az. Time Alt. Az.
26 Sep ? 06:17:21 10° N 06:19:25 20° NE 06:20:03 19° ENE visible
27 Sep ? 06:31:14 10° NW 06:33:48 55° NE 06:35:08 25° ESE visible
28 Sep ? 06:45:45 10° WNW 06:48:22 54° SSW 06:49:56 21° SE visible
29 Sep ? 07:00:43 10° W 07:03:03 26° SSW 07:04:32 16° SSE visible
30 Sep ? 07:15:58 10° WSW 07:17:50 17° SSW 07:18:58 14° SSE visible
01 Oct ? 05:55:18 10° W 05:57:48 36° SSW 06:00:20 10° SE visible
01 Oct ? 07:31:20 10° SW 07:32:44 13° S 07:33:15 13° S visible
